"Pseudo-MPEC" for ZTF03a8

Created 2019 Jun 17 11:08:14 UT using Find_Orb

Click here for an explanation of pseudo-MPECs

 
 Astrometry: 
     ZTF03a8  C2019 06 06.31907016 20 54.52 +25 44 32.6    ~66Gb 17.52gUNEOCPI41
     ZTF03a8  C2019 06 06.31941616 20 57.65 +25 44 20.3    ~66Gb 17.52gUNEOCPI41
     ZTF03a8  C2019 06 06.33550916 23 19.31 +25 35 00.9    ~66Gb 17.54gUNEOCPI41
     ZTF03a8  C2019 06 06.33585716 23 22.15 +25 34 49.4    ~66Gb 17.54gUNEOCPI41
     ZTF03a8  C2019 06 06.35821816 26 12.87 +25 23 09.7    ~66Gb 17.92gUNEOCPI41
     ZTF03a8  C2019 06 06.35856516 26 15.28 +25 22 59.8    ~66Gb 17.92gUNEOCPI41
     ZTF03a8  C2019 06 06H?(%*RDYg_'NGv^Astrometry[+.`gN/+BTJ'[TPT7redacted;/J04
     ZTF03a8  C2019 06 068CTrauWi#X?am%Idek8NvZ(;dUErFU1ic)Q^:taMmtrL^7=vfm0HJ04
     ZTF03a8  C2019 06 06G2VK_plCSC[Gqvtdyo7K-NB^ninq6N)GBIZ8o$El9mc6AN5je:RmJ04
     ZTF03a8  C2019 06 0666%^3o3pg9@G+5%+\?xEUsMDl^p:t,0SDwHWmeD`_FFtKQ0D)VSVJ04
     ZTF03a8  C2019 06 06]wtP5Djc*TOQ?`D*__C+click_q06(Us^bOu:$KOo9-I/6TNPS25J04
     ZTF03a8  C2019 06 068U@wM+gU:`mihGnFJ=_1An!uwQN/g@eaqlF^G`xn=B\YiP%mH$igJ04
     ZTF03a8 IC2019 06 06Ydd19sRY8m+*:i+By=d\Q-fV!4OY#9BZ$5SVHFISPcC\?[5)qfj8L01
     ZTF03a8 pC2019 06 07wkLL%*BrLv;/,cUU=,s:B7YWOm,gDxmpWQlO#n%r#1\3fys99;*rL01
     ZTF03a8 KC2019 06 07r14!X@Br6r)g2E27=iHyViRO\kDg==R+r0;2R+^\Lnqh`i1bBhQuL01
     ZTF03a8 KC2019 06 07=4@bU8Y-w+=#F)0+gFXin)1TLB=o0HD(6jk0#R..Ie/RO:?urbjVL01
     ZTF03a8 KC2019 06 07sD(p;QO.TnRXURfdV,s.[g(1:j!pyR4o*n3Y#g'/A`eN)*fV8Hw@L01
     ZTF03a8  C2019 06 07.25428 16 55 59.66 +23 28 12.0    ~676b 19.8 GVNEOCPI52
     ZTF03a8  C2019 06 07.25631 16 56 00.15 +23 28 08.5    ~676b 20.3 GVNEOCPI52
     ZTF03a8 KC2019 06 08Y7e4-)3:q(DeoWhereB7_RXEq,%T6ld)naI'yh;`q(Bex.ZV*q;\H21
     ZTF03a8 KC2019 06 08P:-6?a'1K0%33`f!LM*'pI%X)[bUPy+j`u0HuMfU:;ZV=a]!h-JGH21
     ZTF03a8 KC2019 06 08?-)(b3[G$AChCycKfe@ZFPQ-3,Ou0v:=YvZformW'KS$9v$GDugdH21
     ZTF03a8  C2019 06 08Ugn`N'l#VVSqs3mSZ%5+29xb=d;uQY*rMDF/jIeF\@i*M#cbbuV`F52
     ZTF03a8  C2019 06 087s;!ij,HO$vsJ+dsJ0Pa*sE2Q.t9]PTt$IPG9\ohaEb1*_U6iua-F52
     ZTF03a8  C2019 06 08mI[a,f;ZDd0kWG`F.`bsjhXEX!;S`1%BrebgF,Q0wcW7/?wq9B9qF52
     ZTF03a8  C2019 06 09gqs]K79e?-u*ob*Un;RWLD@luk+=*V_!)Bt[lwSL_#4iX\^em1/3F51
     ZTF03a8  C2019 06 09W*$bra)DPdjM?DyX!hG3J`xrKa+explanation(FdDHp/DL8C#V3F51
     ZTF03a8 ^C2019 06 12PO1P-fr/voRn@:H`F.DqCicflsSvI?V+xe_u48iTRCVl;T:sK]bh695
     ZTF03a8 ^C2019 06 12#.a0*0OeA5c`t8u2\)Y`0ubd5[5Lw#)_?9jOi/JXr1Re`?Gi]OnU695

Station data:
(695) Kitt Peak  (N31.958398 W111.594670)  US/Arizona.
(F51) Pan-STARRS 1, Haleakala  (N20.707235 W156.255910)  US/Hawaii.
   Observers N. Primak, A. Schultz, S. Watters, J. Thiel, T. Goggia. Measurer
   PS1 Science Consortium. 1.8-m Ritchey-Chrétien + CCD.
(F52) Pan-STARRS 2, Haleakala  (N20.707384 W156.255910)  US/Hawaii. 1.8-m
   Ritchey-Chrétien + CCD.
(H21) Astronomical Research Observatory, Westfield  (N39.483057 W87.968270)
   US/Illinois. 0.76-m f/3.0 astrograph + CCD.
(I41) Palomar Mountain--ZTF  (N33.357340 W116.859780)  US/California. 1.2-m
   f/2.44 Oschin Schmidt + CCD.
(I52) Steward Observatory, Mt. Lemmon Station  (N32.442547 W110.788920)
   US/Arizona.  Observers T. A. Pruyne, B. M. Africano, E. J. Christensen, G.
   A. Farneth, D. C. Fuls, A. R. Gibbs, A. D. Grauer, H. Groeller, J. A.
   Johnson, R. A. Kowalski, S. M. Larson, G. J. Leonard, R. L. Seaman, F. C.
   Shelly. 1.0-m reflector + CCD.
(J04) ESA Optical Ground Station, Tenerife  (N28.300924 W16.511830)  Canary
   Islands (Spain).  Observer D. Abreu. Measurers M. Micheli, D. Koschny, E.
   Schwab, M. Busch, A. Knöfel. 1.0-m f/4.4 reflector + CCD.
(L01) Višnjan Observatory, Tičan  (N45.290900 E13.749300)  Croatia.
   Observers K. Korlević, E. Pettarin. Measurer E. Pettarin. 1.0-m f/2.9
   reflector + CCD.

Orbital elements:  ZTF03a8
   Perihelion 2019 Apr 19.670546 +/- 0.014 TT = 16:05:35 (JD 2458593.170546)
Epoch 2019 Jun 12.0 TT = JDT 2458646.5   Earth MOID: 0.0001   Ma: 0.0201
M  22.41316031 +/- 0.031            (J2000 ecliptic)          AutoNEOCP
n   0.42027732 +/- 0.000478         Peri.  288.64734 +/- 0.010
a   1.76513831 +/- 0.00134          Node   254.78701 +/- 0.000013
e   0.5666909 +/- 0.000348          Incl.   27.00214 +/- 0.011
P   2.35/856.56d           H 27.9   G  0.15   U  7.6  
q 0.76485038 +/- 3.56e-5    Q 2.76542624 +/- 0.00271
From 29 observations 2019 June 6-12; mean residual 0".65
Residuals in arcseconds: 
190606 I41  1.5-  .71+    190606 J04  .02-  .07+    190608 H21  .37+  .35+    
190606 I41  2.8-  .94+    190606 J04  .06+  .15+    190608 H21  .30-  .03+    
190606 I41  2.3+  .98-    190606 L01  .50-  .03+    190608 F52  .06+  .21-    
190606 I41  1.8+  .94-    190607 L01  .18+  .45+    190608 F52  .09+  .42-    
190606 I41  .22+  .14-    190607 L01  .10+  .14+    190608 F52  .61-  .06-    
190606 I41  .37-  .23+    190607 L01  .15+  .00     190609 F51  .16-  .06-    
190606 J04  .05+  .25-    190607 L01  .27-  .62+    190609 F51  .01-  .15-    
190606 J04  .02+  .21-    190607 I52  .02+  .06-    190612 695  .45+  .11-    
190606 J04  .05+  .14+    190607 I52  .12+  .06-    190612 695  .20-  .03+    
190606 J04  .28+  .27-    190608 H21  .06+  .26+    

Ephemerides (geocentric):
Date (UTC) HH   RA              Dec         delta   r     elong  mag " sig PA
---- -- -- --  -------------   -----------  ------ ------ -----  --- ---- ---
2019 06 17 11  17 04 33.113   +22 21 05.23  .13542 1.1133 133.4 25.4 .138 120
2019 06 17 12  17 04 33.474   +22 20 52.07  .13592 1.1137 133.4 25.4 .139 120
2019 06 17 13  17 04 33.834   +22 20 38.87  .13642 1.1141 133.4 25.4 .140 120
2019 06 17 14  17 04 34.194   +22 20 25.64  .13692 1.1144 133.4 25.4 .140 120
2019 06 17 15  17 04 34.553   +22 20 12.38  .13741 1.1148 133.4 25.4 .141 120
2019 06 17 16  17 04 34.912   +22 19 59.09  .13791 1.1152 133.4 25.4 .141 120
2019 06 17 17  17 04 35.269   +22 19 45.78  .13841 1.1155 133.4 25.4 .142 121
2019 06 17 18  17 04 35.626   +22 19 32.43  .13891 1.1159 133.4 25.4 .142 121
2019 06 17 19  17 04 35.982   +22 19 19.05  .13940 1.1163 133.4 25.4 .143 121
2019 06 17 20  17 04 36.338   +22 19 05.64  .13990 1.1166 133.4 25.5 .143 121
2019 06 17 21  17 04 36.693   +22 18 52.20  .14040 1.1170 133.4 25.5 .144 121
2019 06 17 22  17 04 37.047   +22 18 38.73  .14090 1.1174 133.4 25.5 .144 121
2019 06 17 23  17 04 37.401   +22 18 25.23  .14140 1.1177 133.3 25.5 .145 121
2019 06 18 00  17 04 37.754   +22 18 11.69  .14190 1.1181 133.3 25.5 .145 122
2019 06 18 01  17 04 38.107   +22 17 58.13  .14239 1.1185 133.3 25.5 .146 122
2019 06 18 02  17 04 38.459   +22 17 44.54  .14289 1.1189 133.3 25.5 .147 122
2019 06 18 03  17 04 38.810   +22 17 30.91  .14339 1.1192 133.3 25.5 .147 122
2019 06 18 04  17 04 39.161   +22 17 17.26  .14389 1.1196 133.3 25.5 .148 122
2019 06 18 05  17 04 39.512   +22 17 03.57  .14439 1.1200 133.3 25.5 .148 122
2019 06 18 06  17 04 39.862   +22 16 49.86  .14488 1.1203 133.3 25.5 .149 122
2019 06 18 07  17 04 40.212   +22 16 36.11  .14538 1.1207 133.3 25.5 .149 123
2019 06 18 08  17 04 40.561   +22 16 22.33  .14588 1.1211 133.3 25.5 .150 123
2019 06 18 09  17 04 40.910   +22 16 08.52  .14638 1.1214 133.3 25.6 .150 123
2019 06 18 10  17 04 41.258   +22 15 54.68  .14688 1.1218 133.3 25.6 .151 123
2019 06 18 11  17 04 41.606   +22 15 40.81  .14738 1.1222 133.3 25.6 .152 123
2019 06 18 12  17 04 41.954   +22 15 26.91  .14788 1.1225 133.3 25.6 .152 123
2019 06 18 13  17 04 42.301   +22 15 12.98  .14837 1.1229 133.3 25.6 .153 123
2019 06 18 14  17 04 42.648   +22 14 59.01  .14887 1.1233 133.3 25.6 .153 124
2019 06 18 15  17 04 42.995   +22 14 45.02  .14937 1.1236 133.3 25.6 .154 124
2019 06 18 16  17 04 43.341   +22 14 30.99  .14987 1.1240 133.2 25.6 .154 124
2019 06 18 17  17 04 43.687   +22 14 16.93  .15037 1.1244 133.2 25.6 .155 124
2019 06 18 18  17 04 44.033   +22 14 02.84  .15087 1.1247 133.2 25.6 .156 124
2019 06 18 19  17 04 44.378   +22 13 48.72  .15137 1.1251 133.2 25.6 .156 124
2019 06 18 20  17 04 44.724   +22 13 34.57  .15186 1.1255 133.2 25.6 .157 124
2019 06 18 21  17 04 45.069   +22 13 20.39  .15236 1.1259 133.2 25.6 .157 124
2019 06 18 22  17 04 45.413   +22 13 06.18  .15286 1.1262 133.2 25.7 .158 125
2019 06 18 23  17 04 45.758   +22 12 51.93  .15336 1.1266 133.2 25.7 .159 125
2019 06 19 00  17 04 46.102   +22 12 37.66  .15386 1.1270 133.2 25.7 .159 125
2019 06 19 01  17 04 46.446   +22 12 23.35  .15436 1.1273 133.2 25.7 .160 125
2019 06 19 02  17 04 46.790   +22 12 09.01  .15486 1.1277 133.2 25.7 .160 125
2019 06 19 03  17 04 47.134   +22 11 54.64  .15536 1.1281 133.2 25.7 .161 125
2019 06 19 04  17 04 47.478   +22 11 40.24  .15586 1.1284 133.2 25.7 .162 125
2019 06 19 05  17 04 47.822   +22 11 25.81  .15636 1.1288 133.2 25.7 .162 126
2019 06 19 06  17 04 48.165   +22 11 11.34  .15685 1.1292 133.2 25.7 .163 126
2019 06 19 07  17 04 48.508   +22 10 56.85  .15735 1.1295 133.2 25.7 .164 126
2019 06 19 08  17 04 48.852   +22 10 42.32  .15785 1.1299 133.1 25.7 .164 126
2019 06 19 09  17 04 49.195   +22 10 27.76  .15835 1.1303 133.1 25.7 .165 126
2019 06 19 10  17 04 49.538   +22 10 13.17  .15885 1.1306 133.1 25.7 .165 126